Time,TemperatureF,DewpointF,PressureIn,WindDirection,WindDirectionDegrees,WindSpeedMPH,WindSpeedGustMPH,Humidity,HourlyPrecipIn,Conditions,Clouds,dailyrainin,SoftwareType,DateUTC
2013-01-29 00:18:00,25.3,24.0,30.00,NNW,335,0.0,-999.0,95,-99.99,,,0.00,weatherlink.com 1.10,2013-01-29 05:18:00,
2013-01-29 00:33:00,25.3,24.0,30.00,NNW,338,0.0,-999.0,94,-99.99,,,0.00,weatherlink.com 1.10,2013-01-29 05:33:00,
2013-01-29 00:48:00,25.3,24.0,30.00,WNW,303,0.0,-999.0,94,-99.99,,,0.00,weatherlink.com 1.10,2013-01-29 05:48:00,
2013-01-29 01:03:00,25.3,24.0,30.00,NNW,338,0.0,-999.0,94,-99.99,,,0.00,weatherlink.com 1.10,2013-01-29 06:03:00,
2013-01-29 01:18:00,25.3,24.0,30.00,NNW,329,0.0,-999.0,95,-99.99,,,0.00,weatherlink.com 1.10,2013-01-29 06:18:00,
2013-01-29 01:33:00,25.2,24.0,30.00,NNW,329,0.0,-999.0,95,-99.99,,,0.00,weatherlink.com 1.10,2013-01-29 06:33:00,
2013-01-29 01:48:00,25.1,24.0,30.01,NNW,344,0.0,-999.0,95,-99.99,,,0.00,weatherlink.com 1.10,2013-01-29 06:48:00,
2013-01-29 02:03:00,25.1,24.0,30.02,NW,325,0.0,-999.0,95,-99.99,,,0.00,weatherlink.com 1.10,2013-01-29 07:03:00,
2013-01-29 02:18:00,25.0,24.0,30.02,NNW,331,0.0,-999.0,95,-99.99,,,0.00,weatherlink.com 1.10,2013-01-29 07:18:00,
2013-01-29 02:33:00,24.9,24.0,30.02,NW,318,0.0,-999.0,95,-99.99,,,0.00,weatherlink.com 1.10,2013-01-29 07:33:00,
2013-01-29 02:48:00,25.0,24.0,30.03,NNW,332,0.0,-999.0,94,-99.99,,,0.00,weatherlink.com 1.10,2013-01-29 07:48:00,
2013-01-29 03:03:00,25.0,24.0,30.03,NNW,338,0.0,-999.0,94,-99.99,,,0.00,weatherlink.com 1.10,2013-01-29 08:03:00,
2013-01-29 03:18:00,25.0,24.0,30.03,NW,322,0.0,-999.0,94,-99.99,,,0.00,weatherlink.com 1.10,2013-01-29 08:18:00,
2013-01-29 03:33:00,25.0,24.0,30.03,NW,325,0.0,-999.0,94,-99.99,,,0.00,weatherlink.com 1.10,2013-01-29 08:33:00,
2013-01-29 03:48:00,25.0,24.0,30.02,NW,321,0.0,-999.0,94,-99.99,,,0.00,weatherlink.com 1.10,2013-01-29 08:48:00,
2013-01-29 04:03:00,24.9,24.0,30.03,NNW,329,0.0,-999.0,94,-99.99,,,0.00,weatherlink.com 1.10,2013-01-29 09:03:00,
2013-01-29 04:18:00,24.8,23.0,30.04,NNW,330,0.0,-999.0,94,-99.99,,,0.00,weatherlink.com 1.10,2013-01-29 09:18:00,
2013-01-29 04:33:00,24.8,23.0,30.04,NNW,329,0.0,-999.0,94,-99.99,,,0.00,weatherlink.com 1.10,2013-01-29 09:33:00,
2013-01-29 04:48:00,24.8,23.0,30.05,NNW,339,0.0,-999.0,94,-99.99,,,0.00,weatherlink.com 1.10,2013-01-29 09:48:00,
2013-01-29 05:03:00,24.7,23.0,30.05,NW,323,0.0,-999.0,94,-99.99,,,0.00,weatherlink.com 1.10,2013-01-29 10:03:00,
2013-01-29 05:18:00,24.5,23.0,30.05,NW,323,0.0,-999.0,94,-99.99,,,0.00,weatherlink.com 1.10,2013-01-29 10:18:00,
2013-01-29 05:33:00,24.4,23.0,30.05,NNW,334,0.0,-999.0,94,-99.99,,,0.00,weatherlink.com 1.10,2013-01-29 10:33:00,
2013-01-29 05:48:00,24.5,23.0,30.06,NNW,341,0.0,-999.0,94,-99.99,,,0.00,weatherlink.com 1.10,2013-01-29 10:48:00,
2013-01-29 06:03:00,24.3,23.0,30.06,NNW,341,0.0,-999.0,94,-99.99,,,0.00,weatherlink.com 1.10,2013-01-29 11:03:00,
2013-01-29 06:18:00,24.3,23.0,30.07,NNW,329,0.0,-999.0,94,-99.99,,,0.00,weatherlink.com 1.10,2013-01-29 11:18:00,
2013-01-29 06:34:00,24.3,23.0,30.08,NNW,329,0.0,-999.0,94,-99.99,,,0.00,weatherlink.com 1.10,2013-01-29 11:34:00,
2013-01-29 06:48:00,24.2,23.0,30.08,NNW,329,0.0,-999.0,94,-99.99,,,0.00,weatherlink.com 1.10,2013-01-29 11:48:00,
2013-01-29 07:03:00,24.3,23.0,30.09,NNW,329,0.0,-999.0,94,-99.99,,,0.00,weatherlink.com 1.10,2013-01-29 12:03:00,
2013-01-29 07:18:00,24.4,23.0,30.09,NNW,329,0.0,-999.0,94,-99.99,,,0.00,weatherlink.com 1.10,2013-01-29 12:18:00,
2013-01-29 07:33:00,24.7,23.0,30.11,NNW,329,0.0,-999.0,94,-99.99,,,0.00,weatherlink.com 1.10,2013-01-29 12:33:00,
2013-01-29 07:48:00,24.9,24.0,30.12,NNW,328,0.0,-999.0,94,-99.99,,,0.00,weatherlink.com 1.10,2013-01-29 12:48:00,
2013-01-29 08:03:00,25.0,24.0,30.12,NNW,329,0.0,-999.0,94,-99.99,,,0.00,weatherlink.com 1.10,2013-01-29 13:03:00,
2013-01-29 08:18:00,25.1,24.0,30.11,NNW,328,0.0,-999.0,94,-99.99,,,0.00,weatherlink.com 1.10,2013-01-29 13:18:00,
2013-01-29 08:33:00,25.3,24.0,30.13,NW,313,0.0,-999.0,93,-99.99,,,0.00,weatherlink.com 1.10,2013-01-29 13:33:00,
2013-01-29 08:48:00,25.5,24.0,30.13,NW,306,0.0,-999.0,93,-99.99,,,0.00,weatherlink.com 1.10,2013-01-29 13:48:00,
2013-01-29 09:03:00,25.8,24.0,30.13,WNW,303,0.0,-999.0,92,-99.99,,,0.00,weatherlink.com 1.10,2013-01-29 14:03:00,
2013-01-29 09:18:00,26.5,25.0,30.14,WNW,297,0.0,-999.0,92,-99.99,,,0.00,weatherlink.com 1.10,2013-01-29 14:18:00,
2013-01-29 09:33:00,27.0,25.0,30.13,WNW,300,0.0,-999.0,92,-99.99,,,0.00,weatherlink.com 1.10,2013-01-29 14:33:00,
2013-01-29 09:48:00,27.5,25.0,30.13,North,349,0.0,-999.0,91,-99.99,,,0.00,weatherlink.com 1.10,2013-01-29 14:48:00,
2013-01-29 10:03:00,28.0,26.0,30.14,NNW,331,0.0,-999.0,91,-99.99,,,0.00,weatherlink.com 1.10,2013-01-29 15:03:00,
2013-01-29 10:18:00,28.3,26.0,30.14,NNW,332,0.0,-999.0,90,-99.99,,,0.00,weatherlink.com 1.10,2013-01-29 15:18:00,
2013-01-29 10:33:00,28.8,26.0,30.15,NNW,330,0.0,-999.0,90,-99.99,,,0.00,weatherlink.com 1.10,2013-01-29 15:33:00,
2013-01-29 10:48:00,29.8,27.0,30.15,NNW,327,0.0,-999.0,90,-99.99,,,0.00,weatherlink.com 1.10,2013-01-29 15:48:00,
2013-01-29 11:03:00,30.2,28.0,30.15,NNW,332,0.0,-999.0,90,-99.99,,,0.00,weatherlink.com 1.10,2013-01-29 16:03:00,
2013-01-29 11:18:00,30.6,28.0,30.15,North,355,0.0,-999.0,90,-99.99,,,0.00,weatherlink.com 1.10,2013-01-29 16:18:00,
2013-01-29 11:33:00,30.8,28.0,30.14,NNW,343,0.0,-999.0,90,-99.99,,,0.00,weatherlink.com 1.10,2013-01-29 16:33:00,
2013-01-29 11:48:00,31.3,29.0,30.15,NNW,343,0.0,-999.0,90,-99.99,,,0.00,weatherlink.com 1.10,2013-01-29 16:48:00,
2013-01-29 12:03:00,31.3,29.0,30.14,North,350,0.0,-999.0,89,-99.99,,,0.00,weatherlink.com 1.10,2013-01-29 17:03:00,
2013-01-29 12:18:00,31.6,29.0,30.13,North,350,0.0,-999.0,89,-99.99,,,0.00,weatherlink.com 1.10,2013-01-29 17:18:00,
2013-01-29 12:33:00,31.7,29.0,30.14,NNW,329,0.0,-999.0,89,-99.99,,,0.00,weatherlink.com 1.10,2013-01-29 17:33:00,
2013-01-29 12:48:00,32.0,29.0,30.14,NNW,334,0.0,-999.0,89,-99.99,,,0.00,weatherlink.com 1.10,2013-01-29 17:48:00,
2013-01-29 13:03:00,32.1,29.0,30.13,North,349,0.0,-999.0,89,-99.99,,,0.01,weatherlink.com 1.10,2013-01-29 18:03:00,
2013-01-29 13:18:00,32.2,29.0,30.12,North,349,0.0,-999.0,88,-99.99,,,0.02,weatherlink.com 1.10,2013-01-29 18:18:00,
2013-01-29 13:33:00,32.6,30.0,30.12,North,355,0.0,-999.0,88,-99.99,,,0.03,weatherlink.com 1.10,2013-01-29 18:33:00,
2013-01-29 13:48:00,32.6,30.0,30.12,North,355,0.0,-999.0,88,-99.99,,,0.04,weatherlink.com 1.10,2013-01-29 18:48:00,
2013-01-29 14:03:00,32.5,29.0,30.14,North,355,0.0,-999.0,88,-99.99,,,0.04,weatherlink.com 1.10,2013-01-29 19:03:00,
2013-01-29 14:18:00,32.8,30.0,30.12,North,355,0.0,-999.0,89,-99.99,,,0.05,weatherlink.com 1.10,2013-01-29 19:18:00,
2013-01-29 14:33:00,32.8,30.0,30.13,North,355,0.0,-999.0,88,-99.99,,,0.06,weatherlink.com 1.10,2013-01-29 19:33:00,
2013-01-29 14:48:00,33.2,30.0,30.14,North,355,0.0,-999.0,89,-99.99,,,0.07,weatherlink.com 1.10,2013-01-29 19:48:00,
2013-01-29 15:03:00,33.0,30.0,30.14,North,355,0.0,-999.0,89,-99.99,,,0.07,weatherlink.com 1.10,2013-01-29 20:03:00,
2013-01-29 15:18:00,33.0,30.0,30.14,North,355,0.0,-999.0,89,-99.99,,,0.08,weatherlink.com 1.10,2013-01-29 20:18:00,
2013-01-29 15:33:00,33.2,31.0,30.14,North,355,0.0,-999.0,90,-99.99,,,0.00,weatherlink.com 1.10,2013-01-29 20:33:00,
2013-01-29 15:48:00,33.0,30.0,30.13,North,355,0.0,-999.0,90,-99.99,,,0.01,weatherlink.com 1.10,2013-01-29 20:48:00,
2013-01-29 16:03:00,33.0,30.0,30.13,North,355,0.0,-999.0,90,-99.99,,,0.01,weatherlink.com 1.10,2013-01-29 21:03:00,
2013-01-29 16:18:00,32.8,31.0,30.13,North,355,0.0,-999.0,91,-99.99,,,0.01,weatherlink.com 1.10,2013-01-29 21:18:00,
2013-01-29 16:33:00,32.7,31.0,30.13,North,355,0.0,-999.0,92,-99.99,,,0.01,weatherlink.com 1.10,2013-01-29 21:33:00,
2013-01-29 16:48:00,32.6,31.0,30.14,North,355,0.0,-999.0,92,-99.99,,,0.02,weatherlink.com 1.10,2013-01-29 21:48:00,
2013-01-29 17:03:00,32.4,30.0,30.13,North,355,0.0,-999.0,92,-99.99,,,0.02,weatherlink.com 1.10,2013-01-29 22:03:00,
2013-01-29 17:18:00,32.2,30.0,30.13,North,355,0.0,-999.0,93,-99.99,,,0.02,weatherlink.com 1.10,2013-01-29 22:18:00,
2013-01-29 17:33:00,32.1,30.0,30.12,North,355,0.0,-999.0,93,-99.99,,,0.02,weatherlink.com 1.10,2013-01-29 22:33:00,
2013-01-29 17:48:00,32.2,30.0,30.14,North,355,0.0,-999.0,93,-99.99,,,0.02,weatherlink.com 1.10,2013-01-29 22:48:00,
2013-01-29 18:03:00,32.0,31.0,30.14,North,355,0.0,-999.0,94,-99.99,,,0.02,weatherlink.com 1.10,2013-01-29 23:03:00,
2013-01-29 18:18:00,32.0,31.0,30.15,North,355,0.0,-999.0,94,-99.99,,,0.02,weatherlink.com 1.10,2013-01-29 23:18:00,
2013-01-29 18:33:00,31.9,30.0,30.15,North,355,0.0,-999.0,94,-99.99,,,0.02,weatherlink.com 1.10,2013-01-29 23:33:00,
2013-01-29 18:48:00,31.8,31.0,30.16,North,355,0.0,-999.0,95,-99.99,,,0.02,weatherlink.com 1.10,2013-01-29 23:48:00,
2013-01-29 19:03:00,31.8,31.0,30.14,North,355,0.0,-999.0,95,-99.99,,,0.02,weatherlink.com 1.10,2013-01-30 00:03:00,
2013-01-29 19:18:00,31.8,31.0,30.13,North,355,0.0,-999.0,95,-99.99,,,0.02,weatherlink.com 1.10,2013-01-30 00:18:00,
2013-01-29 19:33:00,31.8,31.0,30.14,North,355,0.0,-999.0,95,-99.99,,,0.02,weatherlink.com 1.10,2013-01-30 00:33:00,
2013-01-29 19:48:00,31.8,31.0,30.15,North,355,0.0,-999.0,95,-99.99,,,0.02,weatherlink.com 1.10,2013-01-30 00:48:00,
2013-01-29 20:03:00,31.8,31.0,30.15,North,355,0.0,-999.0,95,-99.99,,,0.02,weatherlink.com 1.10,2013-01-30 01:03:00,
2013-01-29 20:18:00,31.8,31.0,30.15,North,355,0.0,-999.0,95,-99.99,,,0.02,weatherlink.com 1.10,2013-01-30 01:18:00,
2013-01-29 20:33:00,31.8,31.0,30.16,North,355,0.0,-999.0,95,-99.99,,,0.02,weatherlink.com 1.10,2013-01-30 01:33:00,
2013-01-29 20:48:00,31.7,31.0,30.16,North,355,0.0,-999.0,95,-99.99,,,0.02,weatherlink.com 1.10,2013-01-30 01:48:00,
2013-01-29 21:03:00,31.7,31.0,30.15,North,355,0.0,-999.0,96,-99.99,,,0.02,weatherlink.com 1.10,2013-01-30 02:03:00,
2013-01-29 21:18:00,31.9,31.0,30.14,North,355,0.0,-999.0,96,-99.99,,,0.02,weatherlink.com 1.10,2013-01-30 02:18:00,
2013-01-29 21:33:00,32.1,31.0,30.13,ESE,108,0.0,-999.0,96,-99.99,,,0.02,weatherlink.com 1.10,2013-01-30 02:33:00,
2013-01-29 21:48:00,32.1,31.0,30.13,ESE,108,0.0,-999.0,96,-99.99,,,0.02,weatherlink.com 1.10,2013-01-30 02:48:00,
2013-01-29 22:03:00,32.1,31.0,30.13,ESE,108,0.0,-999.0,96,-99.99,,,0.02,weatherlink.com 1.10,2013-01-30 03:03:00,
2013-01-29 22:18:00,32.2,32.0,30.11,ESE,108,0.0,-999.0,97,-99.99,,,0.02,weatherlink.com 1.10,2013-01-30 03:18:00,
2013-01-29 22:33:00,32.2,32.0,30.11,ESE,108,0.0,-999.0,97,-99.99,,,0.02,weatherlink.com 1.10,2013-01-30 03:33:00,
2013-01-29 22:48:00,32.3,32.0,30.11,ESE,108,0.0,-999.0,97,-99.99,,,0.03,weatherlink.com 1.10,2013-01-30 03:48:00,
2013-01-29 23:03:00,32.3,32.0,30.11,ESE,108,0.0,-999.0,97,-99.99,,,0.03,weatherlink.com 1.10,2013-01-30 04:03:00,
2013-01-29 23:18:00,32.3,32.0,30.11,ESE,108,0.0,-999.0,97,-99.99,,,0.03,weatherlink.com 1.10,2013-01-30 04:18:00,
2013-01-29 23:33:00,32.2,32.0,30.11,ESE,108,0.0,-999.0,97,-99.99,,,0.03,weatherlink.com 1.10,2013-01-30 04:33:00,
2013-01-29 23:48:00,32.2,32.0,30.12,ESE,108,0.0,-999.0,97,-99.99,,,0.03,weatherlink.com 1.10,2013-01-30 04:48:00,